Year,Month,Day,Hour,Minute,Value (Times are PST for temperature in C)
2007,12,04,10,53,10.40
2007,12,04,10,54,10.40
2007,12,04,10,55,10.40
2007,12,04,10,56,10.40
2007,12,04,10,57,10.40
2007,12,04,10,58,10.40
2007,12,04,10,59,10.40
2007,12,04,11,00,10.40
2007,12,04,11,01,10.40
2007,12,04,11,02,10.40
2007,12,04,11,03,10.40
2007,12,04,11,04,10.40
2007,12,04,11,05,10.40
2007,12,04,11,06,10.40
2007,12,04,11,07,10.40
2007,12,04,11,08,10.40
2007,12,04,11,09,10.40
2007,12,04,11,10,10.40
2007,12,04,11,11,10.40
2007,12,04,11,12,10.40
2007,12,04,11,13,10.40
2007,12,04,11,14,10.40
2007,12,04,11,15,10.40
2007,12,04,11,16,10.40
2007,12,04,11,17,10.40
2007,12,04,11,18,10.40
2007,12,04,11,19,10.40
2007,12,04,11,20,10.40
2007,12,04,11,21,10.40
2007,12,04,11,22,10.30
2007,12,04,11,23,10.30
2007,12,04,11,24,10.30
2007,12,04,11,25,10.30
2007,12,04,11,26,10.30
2007,12,04,11,27,10.30
2007,12,04,11,28,10.30
2007,12,04,11,29,10.30
2007,12,04,11,30,10.30
2007,12,04,11,31,10.30
2007,12,04,11,32,10.30
2007,12,04,11,33,10.30
2007,12,04,11,34,10.30
2007,12,04,11,35,10.30
2007,12,04,11,36,10.30
2007,12,04,11,37,10.30
2007,12,04,11,38,10.30
2007,12,04,11,39,10.30
2007,12,04,11,40,10.30
2007,12,04,11,41,10.30
2007,12,04,11,42,10.30
2007,12,04,11,43,10.30
2007,12,04,11,44,10.30
2007,12,04,11,45,10.30
2007,12,04,11,46,10.30
2007,12,04,11,47,10.30
2007,12,04,11,48,10.30
2007,12,04,11,49,10.30
2007,12,04,11,50,10.30
2007,12,04,11,51,10.30
2007,12,04,11,52,10.30
2007,12,04,11,53,10.30
2007,12,04,11,54,10.30
2007,12,04,11,55,10.30
2007,12,04,11,56,10.30
2007,12,04,11,57,10.30
2007,12,04,11,58,10.30
2007,12,04,11,59,10.30
2007,12,04,12,00,10.30
2007,12,04,12,01,10.30
2007,12,04,12,02,10.30
2007,12,04,12,03,10.30
2007,12,04,12,04,10.30
2007,12,04,12,05,10.30
2007,12,04,12,06,10.30
2007,12,04,12,07,10.30
2007,12,04,12,08,10.30
2007,12,04,12,09,10.30
2007,12,04,12,10,10.30
2007,12,04,12,11,10.30
2007,12,04,12,12,10.30
2007,12,04,12,13,10.30
2007,12,04,12,14,10.30
2007,12,04,12,15,10.30
2007,12,04,12,16,10.30
2007,12,04,12,17,10.20
2007,12,04,12,18,10.20
2007,12,04,12,19,10.20
2007,12,04,12,20,10.20
2007,12,04,12,21,10.20
2007,12,04,12,22,10.20
2007,12,04,12,23,10.20
2007,12,04,12,24,10.20
2007,12,04,12,25,10.20
2007,12,04,12,26,10.20
2007,12,04,12,27,10.20
2007,12,04,12,28,10.20
2007,12,04,12,29,10.20
2007,12,04,12,30,10.20
2007,12,04,12,31,10.20
2007,12,04,12,32,10.20
2007,12,04,12,33,10.20
2007,12,04,12,34,10.20
2007,12,04,12,35,10.20
2007,12,04,12,36,10.20
2007,12,04,12,37,10.10
2007,12,04,12,38,10.10
2007,12,04,12,39,10.10
2007,12,04,12,40,10.10
2007,12,04,12,41,10.10
2007,12,04,12,42,10.10
2007,12,04,12,43,10.10
2007,12,04,12,44,10.10
2007,12,04,12,45,10.10
2007,12,04,12,46,10.10
2007,12,04,12,47,10.10
2007,12,04,12,48,10.00
2007,12,04,12,49,10.10
2007,12,04,12,50,10.00
2007,12,04,12,51,10.00
2007,12,04,12,52,10.00
2007,12,04,12,53,10.00
2007,12,04,12,54,10.00
2007,12,04,12,55,10.00
2007,12,04,12,56,9.90
2007,12,04,12,57,9.90
2007,12,04,12,58,9.90
2007,12,04,12,59,9.90
2007,12,04,13,00,9.90
2007,12,04,13,01,9.90
2007,12,04,13,02,9.90
2007,12,04,13,03,9.90
2007,12,04,13,04,9.80
2007,12,04,13,05,9.80
2007,12,04,13,06,9.80
2007,12,04,13,07,9.80
2007,12,04,13,08,9.80
2007,12,04,13,09,9.80
2007,12,04,13,10,9.80
2007,12,04,13,11,9.80
2007,12,04,13,12,9.80
2007,12,04,13,13,9.80
2007,12,04,13,14,9.80
2007,12,04,13,15,9.80
2007,12,04,13,16,9.80
2007,12,04,13,17,9.80
2007,12,04,13,18,9.80
2007,12,04,13,19,9.80
2007,12,04,13,20,9.80
2007,12,04,13,21,9.80
2007,12,04,13,22,9.80
2007,12,04,13,23,9.80
2007,12,04,13,24,9.80
2007,12,04,13,25,9.80
2007,12,04,13,26,9.80
2007,12,04,13,27,9.80
2007,12,04,13,28,9.80
2007,12,04,13,29,9.80
2007,12,04,13,30,9.80
2007,12,04,13,31,9.80
2007,12,04,13,32,9.80
2007,12,04,13,33,9.70
2007,12,04,13,34,9.70
2007,12,04,13,35,9.70
2007,12,04,13,36,9.70
2007,12,04,13,37,9.70
2007,12,04,13,38,9.70
2007,12,04,13,39,9.70
2007,12,04,13,40,9.70
2007,12,04,13,41,9.70
2007,12,04,13,42,9.70
2007,12,04,13,43,9.70
2007,12,04,13,44,9.70
2007,12,04,13,45,9.70
2007,12,04,13,46,9.70
2007,12,04,13,47,9.70
2007,12,04,13,48,9.70
2007,12,04,13,49,9.70
2007,12,04,13,50,9.70
2007,12,04,13,51,9.70
2007,12,04,13,52,9.70
2007,12,04,13,53,9.70
2007,12,04,13,54,9.70
2007,12,04,13,55,9.70
2007,12,04,13,56,9.70
2007,12,04,13,57,9.70
2007,12,04,13,58,9.70
2007,12,04,13,59,9.70
2007,12,04,14,00,9.70
2007,12,04,14,01,9.80
2007,12,04,14,02,9.80
2007,12,04,14,03,9.80
2007,12,04,14,04,9.80
2007,12,04,14,05,9.80
2007,12,04,14,06,9.80
2007,12,04,14,07,9.80
2007,12,04,14,08,9.80
2007,12,04,14,09,9.80
2007,12,04,14,10,9.80
2007,12,04,14,11,9.80
2007,12,04,14,12,9.80
2007,12,04,14,13,9.80
2007,12,04,14,14,9.80
2007,12,04,14,15,9.80
2007,12,04,14,16,9.80
2007,12,04,14,17,9.80
2007,12,04,14,18,9.70
2007,12,04,14,19,9.70
2007,12,04,14,20,9.70
2007,12,04,14,21,9.70
2007,12,04,14,22,9.70
2007,12,04,14,23,9.70
2007,12,04,14,24,9.70
2007,12,04,14,25,9.70
2007,12,04,14,26,9.70
2007,12,04,14,27,9.60
2007,12,04,14,28,9.60
2007,12,04,14,29,9.60
2007,12,04,14,30,9.60
2007,12,04,14,31,9.60
2007,12,04,14,32,9.60
2007,12,04,14,33,9.60
2007,12,04,14,34,9.60
2007,12,04,14,35,9.60
2007,12,04,14,36,9.60
2007,12,04,14,37,9.60
2007,12,04,14,38,9.60
2007,12,04,14,39,9.60
2007,12,04,14,40,9.60
2007,12,04,14,41,9.60
2007,12,04,14,42,9.60
2007,12,04,14,43,9.60
2007,12,04,14,44,9.50
2007,12,04,14,45,9.50
2007,12,04,14,46,9.50
2007,12,04,14,47,9.50
2007,12,04,14,48,9.40
2007,12,04,14,49,9.40
2007,12,04,14,50,9.40
2007,12,04,14,51,9.40
2007,12,04,14,52,9.40
2007,12,04,14,53,9.40
2007,12,04,14,54,9.40
2007,12,04,14,55,9.40
2007,12,04,14,56,9.40
2007,12,04,14,57,9.40
2007,12,04,14,58,9.40
2007,12,04,14,59,9.40
2007,12,04,15,00,9.50
2007,12,04,15,01,9.50
2007,12,04,15,02,9.60
2007,12,04,15,03,9.60
2007,12,04,15,04,9.60
2007,12,04,15,05,9.60
2007,12,04,15,06,9.60
2007,12,04,15,07,9.60
2007,12,04,15,08,9.70
2007,12,04,15,09,9.70
2007,12,04,15,10,9.70
2007,12,04,15,11,9.80
2007,12,04,15,12,9.80
2007,12,04,15,13,9.80
2007,12,04,15,14,9.80
2007,12,04,15,15,9.80
2007,12,04,15,16,9.80
2007,12,04,15,17,9.90
2007,12,04,15,18,9.90
2007,12,04,15,19,9.90
2007,12,04,15,20,9.90
2007,12,04,15,21,9.90
2007,12,04,15,22,9.90
2007,12,04,15,23,9.90
2007,12,04,15,24,9.90
2007,12,04,15,25,9.90
2007,12,04,15,26,9.90
2007,12,04,15,27,9.90
2007,12,04,15,28,9.80
2007,12,04,15,29,9.80
2007,12,04,15,30,9.80
2007,12,04,15,31,9.80
2007,12,04,15,32,9.80
2007,12,04,15,33,9.80
2007,12,04,15,34,9.80
2007,12,04,15,35,9.80
2007,12,04,15,36,9.80
2007,12,04,15,37,9.80
2007,12,04,15,38,9.80
2007,12,04,15,39,9.80
2007,12,04,15,40,9.80
2007,12,04,15,41,9.80
2007,12,04,15,42,9.80
2007,12,04,15,43,9.80
2007,12,04,15,44,9.70
2007,12,04,15,45,9.70
2007,12,04,15,46,9.70
2007,12,04,15,47,9.70
2007,12,04,15,48,9.70
2007,12,04,15,49,9.70
2007,12,04,15,50,9.70
2007,12,04,15,51,9.70
2007,12,04,15,52,9.70
2007,12,04,15,53,9.70
2007,12,04,15,54,9.70
2007,12,04,15,55,9.70
2007,12,04,15,56,9.70
2007,12,04,15,57,9.70
2007,12,04,15,58,9.70
2007,12,04,15,59,9.70
2007,12,04,16,00,9.70
2007,12,04,16,01,9.70
2007,12,04,16,02,9.70
2007,12,04,16,03,9.70
2007,12,04,16,04,9.60
2007,12,04,16,05,9.60
2007,12,04,16,06,9.60
2007,12,04,16,07,9.70
2007,12,04,16,08,9.70
2007,12,04,16,09,9.70
2007,12,04,16,10,9.70
2007,12,04,16,11,9.70
2007,12,04,16,12,9.70
2007,12,04,16,13,9.70
2007,12,04,16,14,9.70
2007,12,04,16,15,9.70
2007,12,04,16,16,9.70
2007,12,04,16,17,9.70
2007,12,04,16,18,9.70
2007,12,04,16,19,9.70
2007,12,04,16,20,9.70
2007,12,04,16,21,9.60
2007,12,04,16,22,9.60
2007,12,04,16,23,9.60
2007,12,04,16,24,9.60
2007,12,04,16,25,9.60
2007,12,04,16,26,9.60
2007,12,04,16,27,9.60
2007,12,04,16,28,9.60
2007,12,04,16,29,9.60
2007,12,04,16,30,9.60
2007,12,04,16,31,9.60
2007,12,04,16,32,9.60
2007,12,04,16,33,9.60
2007,12,04,16,34,9.60
2007,12,04,16,35,9.60
2007,12,04,16,36,9.60
2007,12,04,16,37,9.60
2007,12,04,16,38,9.60
2007,12,04,16,39,9.50
2007,12,04,16,40,9.50
2007,12,04,16,41,9.50
2007,12,04,16,42,9.50
2007,12,04,16,43,9.50
2007,12,04,16,44,9.50
2007,12,04,16,45,9.50
2007,12,04,16,46,9.50
2007,12,04,16,47,9.50
2007,12,04,16,48,9.50
2007,12,04,16,49,9.50
2007,12,04,16,50,9.50
2007,12,04,16,51,9.50
2007,12,04,16,52,9.50
2007,12,04,16,53,9.50
2007,12,04,16,54,9.50
2007,12,04,16,55,9.50
2007,12,04,16,56,9.50
2007,12,04,16,57,9.50
2007,12,04,16,58,9.50
2007,12,04,16,59,9.50
2007,12,04,17,00,9.50
2007,12,04,17,01,9.50
2007,12,04,17,02,9.50
2007,12,04,17,03,9.50
2007,12,04,17,04,9.40
2007,12,04,17,05,9.40
2007,12,04,17,06,9.40
2007,12,04,17,07,9.40
2007,12,04,17,08,9.30
2007,12,04,17,09,9.30
2007,12,04,17,10,9.30
2007,12,04,17,11,9.30
2007,12,04,17,12,9.30
2007,12,04,17,13,9.20
2007,12,04,17,14,9.20
2007,12,04,17,15,9.20
2007,12,04,17,16,9.20
2007,12,04,17,17,9.20
2007,12,04,17,18,9.20
2007,12,04,17,19,9.20
2007,12,04,17,20,9.20
2007,12,04,17,21,9.20
2007,12,04,17,22,9.20
2007,12,04,17,23,9.20
2007,12,04,17,24,9.20
2007,12,04,17,25,9.10
2007,12,04,17,26,9.10
2007,12,04,17,27,9.10
2007,12,04,17,28,9.10
2007,12,04,17,29,9.10
2007,12,04,17,30,9.10
2007,12,04,17,31,9.10
2007,12,04,17,32,9.10
2007,12,04,17,33,9.10
2007,12,04,17,34,9.10
2007,12,04,17,35,9.10
2007,12,04,17,36,9.10
2007,12,04,17,37,9.10
2007,12,04,17,38,9.10
2007,12,04,17,39,9.10
2007,12,04,17,40,9.10
2007,12,04,17,41,9.10
2007,12,04,17,42,9.10
2007,12,04,17,43,9.10
2007,12,04,17,44,9.10
2007,12,04,17,45,9.10
2007,12,04,17,46,9.10
2007,12,04,17,47,9.10
2007,12,04,17,48,9.10
2007,12,04,17,49,9.10
2007,12,04,17,50,9.10
2007,12,04,17,51,9.10
2007,12,04,17,52,9.10
2007,12,04,17,53,9.10
2007,12,04,17,54,9.10
2007,12,04,17,55,9.10
2007,12,04,17,56,9.10
2007,12,04,17,57,9.10
2007,12,04,17,58,9.10
2007,12,04,17,59,9.20
2007,12,04,18,00,9.20
2007,12,04,18,01,9.20
2007,12,04,18,02,9.20
2007,12,04,18,03,9.20
2007,12,04,18,04,9.20
2007,12,04,18,05,9.20
2007,12,04,18,06,9.20
2007,12,04,18,07,9.20
2007,12,04,18,08,9.20
2007,12,04,18,09,9.20
2007,12,04,18,10,9.20
2007,12,04,18,11,9.20
2007,12,04,18,12,9.20
2007,12,04,18,13,9.20
2007,12,04,18,14,9.20
2007,12,04,18,15,9.20
2007,12,04,18,16,9.20
2007,12,04,18,17,9.20
2007,12,04,18,18,9.20
2007,12,04,18,19,9.10
2007,12,04,18,20,9.10
2007,12,04,18,21,9.10
2007,12,04,18,22,9.10
2007,12,04,18,23,9.10
2007,12,04,18,24,9.20
2007,12,04,18,25,9.20
2007,12,04,18,26,9.20
2007,12,04,18,27,9.20
2007,12,04,18,28,9.20
2007,12,04,18,29,9.20
2007,12,04,18,30,9.20
2007,12,04,18,31,9.20
2007,12,04,18,32,9.20
2007,12,04,18,33,9.20
2007,12,04,18,34,9.20
2007,12,04,18,35,9.20
2007,12,04,18,36,9.20
2007,12,04,18,37,9.20
2007,12,04,18,38,9.20
2007,12,04,18,39,9.20
2007,12,04,18,40,9.20
2007,12,04,18,41,9.20
2007,12,04,18,42,9.20
2007,12,04,18,43,9.20
2007,12,04,18,44,9.20
2007,12,04,18,45,9.20
2007,12,04,18,46,9.20
2007,12,04,18,47,9.20
2007,12,04,18,48,9.20
2007,12,04,18,49,9.20
2007,12,04,18,50,9.20
2007,12,04,18,51,9.20
2007,12,04,18,52,9.20
2007,12,04,18,53,9.20
2007,12,04,18,54,9.20
2007,12,04,18,55,9.20
2007,12,04,18,56,9.20
2007,12,04,18,57,9.20
2007,12,04,18,58,9.20
2007,12,04,18,59,9.20
2007,12,04,19,00,9.20
2007,12,04,19,01,9.20
2007,12,04,19,02,9.20
2007,12,04,19,03,9.20
2007,12,04,19,04,9.20
2007,12,04,19,05,9.20
2007,12,04,19,06,9.20
2007,12,04,19,07,9.20
2007,12,04,19,08,9.20
2007,12,04,19,09,9.20
2007,12,04,19,10,9.20
2007,12,04,19,11,9.20
2007,12,04,19,12,9.20
2007,12,04,19,13,9.20
2007,12,04,19,14,9.30
2007,12,04,19,15,9.30
2007,12,04,19,16,9.30
2007,12,04,19,17,9.30
2007,12,04,19,18,9.30
2007,12,04,19,19,9.30
2007,12,04,19,20,9.30
2007,12,04,19,21,9.30
2007,12,04,19,22,9.30
2007,12,04,19,23,9.30
2007,12,04,19,24,9.30
2007,12,04,19,25,9.30
2007,12,04,19,26,9.20
2007,12,04,19,27,9.20
2007,12,04,19,28,9.20
2007,12,04,19,29,9.20
2007,12,04,19,30,9.20
2007,12,04,19,31,9.20
2007,12,04,19,32,9.20
2007,12,04,19,33,9.20
2007,12,04,19,34,9.20
2007,12,04,19,35,9.20
2007,12,04,19,36,9.20
2007,12,04,19,37,9.20
2007,12,04,19,38,9.20
2007,12,04,19,39,9.20
2007,12,04,19,40,9.20
2007,12,04,19,41,9.10
2007,12,04,19,42,9.10
2007,12,04,19,43,9.10
2007,12,04,19,44,9.10
2007,12,04,19,45,9.10
2007,12,04,19,46,9.10
2007,12,04,19,47,9.00
2007,12,04,19,48,9.00
2007,12,04,19,49,9.00
2007,12,04,19,50,8.90
2007,12,04,19,51,8.90
2007,12,04,19,52,8.90
2007,12,04,19,53,8.90
2007,12,04,19,54,8.80
2007,12,04,19,55,8.80
2007,12,04,19,56,8.80
2007,12,04,19,57,8.80
2007,12,04,19,58,8.80
2007,12,04,19,59,8.80
2007,12,04,20,00,8.80
2007,12,04,20,01,8.80
2007,12,04,20,02,8.80
2007,12,04,20,03,8.80
2007,12,04,20,04,8.80
2007,12,04,20,05,8.80
2007,12,04,20,06,8.80
2007,12,04,20,07,8.80
2007,12,04,20,08,8.80
2007,12,04,20,09,8.80
2007,12,04,20,10,8.80
2007,12,04,20,11,8.80
2007,12,04,20,12,8.80
2007,12,04,20,13,8.80
2007,12,04,20,14,8.80
2007,12,04,20,15,8.80
2007,12,04,20,16,8.80
2007,12,04,20,17,8.80
2007,12,04,20,18,8.80
2007,12,04,20,19,8.80
2007,12,04,20,20,8.80
2007,12,04,20,21,8.80
2007,12,04,20,22,8.80
2007,12,04,20,23,8.80
2007,12,04,20,24,8.80
2007,12,04,20,25,8.80
2007,12,04,20,26,8.80
2007,12,04,20,27,8.80
2007,12,04,20,28,8.80
2007,12,04,20,29,8.80
2007,12,04,20,30,8.80
2007,12,04,20,31,8.80
2007,12,04,20,32,8.80
2007,12,04,20,33,8.80
2007,12,04,20,34,8.80
2007,12,04,20,35,8.80
2007,12,04,20,36,8.80
2007,12,04,20,37,8.80
2007,12,04,20,38,8.80
2007,12,04,20,39,8.80
2007,12,04,20,40,8.80
2007,12,04,20,41,8.80
2007,12,04,20,42,8.80
2007,12,04,20,43,8.80
2007,12,04,20,44,8.80
2007,12,04,20,45,8.80
2007,12,04,20,46,8.70
2007,12,04,20,47,8.70
2007,12,04,20,48,8.70
2007,12,04,20,49,8.70
2007,12,04,20,50,8.70
2007,12,04,20,51,8.60
2007,12,04,20,52,8.60
2007,12,04,20,53,8.60
2007,12,04,20,54,8.60
2007,12,04,20,55,8.60
2007,12,04,20,56,8.60
2007,12,04,20,57,8.50
2007,12,04,20,58,8.50
2007,12,04,20,59,8.50
2007,12,04,21,00,8.40
2007,12,04,21,01,8.40
2007,12,04,21,02,8.40
2007,12,04,21,03,8.40
2007,12,04,21,04,8.40
2007,12,04,21,05,8.40
2007,12,04,21,06,8.40
2007,12,04,21,07,8.40
2007,12,04,21,08,8.40
2007,12,04,21,09,8.40
2007,12,04,21,10,8.30
2007,12,04,21,11,8.40
2007,12,04,21,12,8.30
2007,12,04,21,13,8.30
2007,12,04,21,14,8.30
2007,12,04,21,15,8.30
2007,12,04,21,16,8.30
2007,12,04,21,17,8.30
2007,12,04,21,18,8.30
2007,12,04,21,19,8.30
2007,12,04,21,20,8.30
2007,12,04,21,21,8.30
2007,12,04,21,22,8.30
2007,12,04,21,23,8.20
2007,12,04,21,24,8.20
2007,12,04,21,25,8.20
2007,12,04,21,26,8.20
2007,12,04,21,27,8.20
2007,12,04,21,28,8.20
2007,12,04,21,29,8.20
2007,12,04,21,30,8.20
2007,12,04,21,31,8.20
2007,12,04,21,32,8.20
2007,12,04,21,33,8.20
2007,12,04,21,34,8.20
2007,12,04,21,35,8.10
2007,12,04,21,36,8.10
2007,12,04,21,37,8.10
2007,12,04,21,38,8.10
2007,12,04,21,39,8.10
2007,12,04,21,40,8.10
2007,12,04,21,41,8.10
2007,12,04,21,42,8.10
2007,12,04,21,43,8.10
2007,12,04,21,44,8.10
2007,12,04,21,45,8.10
2007,12,04,21,46,8.10
2007,12,04,21,47,8.10
2007,12,04,21,48,8.10
2007,12,04,21,49,8.10
2007,12,04,21,50,8.10
2007,12,04,21,51,8.10
2007,12,04,21,52,8.10
2007,12,04,21,53,8.10
2007,12,04,21,54,8.10
2007,12,04,21,55,8.10
2007,12,04,21,56,8.10
2007,12,04,21,57,8.10
2007,12,04,21,58,8.10
2007,12,04,21,59,8.10
2007,12,04,22,00,8.10
2007,12,04,22,01,8.10
2007,12,04,22,02,8.10
2007,12,04,22,03,8.10
2007,12,04,22,04,8.10
2007,12,04,22,05,8.10
2007,12,04,22,06,8.10
2007,12,04,22,07,8.10
2007,12,04,22,08,8.10
2007,12,04,22,09,8.00
2007,12,04,22,10,8.00
2007,12,04,22,11,8.00
2007,12,04,22,12,8.00
2007,12,04,22,13,8.00
2007,12,04,22,14,7.90
2007,12,04,22,15,7.90
2007,12,04,22,16,7.90
2007,12,04,22,17,7.90
2007,12,04,22,18,7.90
2007,12,04,22,19,7.90
2007,12,04,22,20,7.90
2007,12,04,22,21,7.90
2007,12,04,22,22,7.90
2007,12,04,22,23,7.90
2007,12,04,22,24,7.90
2007,12,04,22,25,7.90
2007,12,04,22,26,7.90
2007,12,04,22,27,7.90
2007,12,04,22,28,7.90
2007,12,04,22,29,7.90
2007,12,04,22,30,8.00
2007,12,04,22,31,8.00
2007,12,04,22,32,8.00
2007,12,04,22,33,8.00
2007,12,04,22,34,8.00
2007,12,04,22,35,8.00
2007,12,04,22,36,8.00
2007,12,04,22,37,8.00
2007,12,04,22,38,7.90
2007,12,04,22,39,7.90
2007,12,04,22,40,7.90
2007,12,04,22,41,7.90
2007,12,04,22,42,7.90
2007,12,04,22,43,7.90
2007,12,04,22,44,7.90
2007,12,04,22,45,7.90
2007,12,04,22,46,7.90
2007,12,04,22,47,7.90
2007,12,04,22,48,7.90
2007,12,04,22,49,7.90
2007,12,04,22,50,7.90
2007,12,04,22,51,7.80
2007,12,04,22,52,7.80
2007,12,04,22,53,7.80
2007,12,04,22,54,7.80
2007,12,04,22,55,7.80
2007,12,04,22,56,7.80
2007,12,04,22,57,7.80
2007,12,04,22,58,7.80
2007,12,04,22,59,7.80
2007,12,04,23,00,7.80
2007,12,04,23,01,7.80
2007,12,04,23,02,7.80
2007,12,04,23,03,7.80
2007,12,04,23,04,7.80
2007,12,04,23,05,7.80
2007,12,04,23,06,7.80
2007,12,04,23,07,7.80
2007,12,04,23,08,7.80
2007,12,04,23,09,7.80
2007,12,04,23,10,7.80
2007,12,04,23,11,7.80
2007,12,04,23,12,7.80
2007,12,04,23,13,7.80
2007,12,04,23,14,7.80
2007,12,04,23,15,7.80
2007,12,04,23,16,7.80
2007,12,04,23,17,7.80
2007,12,04,23,18,7.80
2007,12,04,23,19,7.80
2007,12,04,23,20,7.80
2007,12,04,23,21,7.80
2007,12,04,23,22,7.80
2007,12,04,23,23,7.80
2007,12,04,23,24,7.80
2007,12,04,23,25,7.80
2007,12,04,23,26,7.80
2007,12,04,23,27,7.80
2007,12,04,23,28,7.80
2007,12,04,23,29,7.80
2007,12,04,23,30,7.80
2007,12,04,23,31,7.90
2007,12,04,23,32,7.90
2007,12,04,23,33,7.90
2007,12,04,23,34,7.90
2007,12,04,23,35,7.90
2007,12,04,23,36,7.90
2007,12,04,23,37,7.90
2007,12,04,23,38,7.90
2007,12,04,23,39,7.90
2007,12,04,23,40,7.90
2007,12,04,23,41,7.90
2007,12,04,23,42,7.90
2007,12,04,23,43,7.90
2007,12,04,23,44,7.80
2007,12,04,23,45,7.80
2007,12,04,23,46,7.80
2007,12,04,23,47,7.70
2007,12,04,23,48,7.70
2007,12,04,23,49,7.60
2007,12,04,23,50,7.50
2007,12,04,23,51,7.50
2007,12,04,23,52,7.40
2007,12,04,23,53,7.40
2007,12,04,23,54,7.40
2007,12,04,23,55,7.40
2007,12,04,23,56,7.30
2007,12,04,23,57,7.30
2007,12,04,23,58,7.30
2007,12,04,23,59,7.30
